SL-16 DEB, 28437

Orbit data source: Space-Track

SL-16 DEB, 28437 is space debris in SSO originally from a launch on Mon, 10 Dec 2001 UTC launched from the Tyuratam Missile And Space Complex (TTMTR). Debris objects in space refer to the collection of defunct objects orbiting the Earth. Examples of debris include non-operational satellites, rocket bodies, and fragments generated from explosions, collisions, or faulty payload assembly.

Loading next visibility...
Identifier
28437, 2001-056L
Orbit
SSO
Country
Flag of CISCIS
Related business
Manufacturer
Yuzhnoe
Mission
Spacecraft
Bus & Motor
SEP MOTOR COVER, Unknown motor
Mass
~1 kg wet, ~1 kg dry
Launch date (UTC)
2001-12-10 (24 years ago)
Launch vehicle
Unknown
Launch site
Tyuratam Missile And Space Complex (TTMTR)
Object type
Payload
Rocket body
Debris
Shape & HBR
Cone, 0.5 m
Radar Cross Section
0.635 m², Small (<0.1 m²)

Expand to show TLE details & history
Last TLE update: 19 hours ago

TLE from 19 hours ago
0 SL-16 DEB
1 28437U 01056L   25310.05127581  .00000142  00000-0  35921-3 0  9996
2 28437  99.4723 234.4498 0202309  31.7168 350.6480 13.27591808157661
Epoch: 2025-11-06T01:13Z
TLE epoch observation values (Epoch: 2025-11-06T01:13:50.229Z)
Latitude
21.67688°
Longitude
166.69264°
Altitude
1,008.041 km
Speed
7.422 km/s
True Right ascension
15h 22m 40s
True Declination
21° 33' 47"
Sunlit
Object was in daylight at epoch
Visualization orbit readout
Latitude
Unknown
Longitude
Unknown
Altitude
Unknown
Speed
Unknown
Apparent Right ascension
Unknown
Apparent Declination
Unknown
Sunlit
N/A
Visualization observer readout
Local Sidereal Time
15:52:03
Azimuth
Unknown
Elevation
Unknown
Doppler factor
Unknown
Orbital elements
Apogee altitude
1,305.544 km
Perigee altitude
1,000.813 km
Semi-major axis
7,531.316 km
Eccentricity
0.02023
Inclination
99.4723°
RAAN
234.4498°
Arg. of periapsis
31.7168°
True anomaly
350.26165°
Mean anomaly
350.648°
Eccentric anomaly
350.4558°
Mean motion
3.32076 °/min
Orbital period
108.41 mins
BSTAR
0.00035921
Loading maneuver chart data...
Computing Atmospheric mass density...
Loading historical data...
Loading historical data...
Loading historical data...
Loading historical data...
Loading historical data...
Loading historical data...
Loading historical data...

Documentation

Showing up to 5 results
|